www.pogodaiklimat.ru

Погода и климат >> Архив погоды >> Аргентина >> Азул


ПОГОДА в Азуле

  • Прогноз погоды в Азуле
  • Монитор погоды в Азуле

АРХИВ ПОГОДЫ в Азуле

Время (UTC), дата Ветер
(напр.,м/с)
 
Видим.   Явления Облачность Т
(С)
Тd
(С)
f
(%)
Тe
(С)
Тes
(С)
Комфортность P
(гПа)
Po
(гПа)
Тmin
(С)
Tmax
(С)
R
(мм)
R24
(мм)
S
(см)
18 17.03 С 1 20 км 4/4 1050 м
[Cu med, cong Ac As]
+25.7 +19.4 68 +31 +39 очень
душно
1009.6 992.6
21 17.03 З 1 20 км 4/4 1050 м
[Cu med, cong]
+25.0 +19.5 72 +30 +31 душно 1008.1 991.2
00 18.03 штиль 0 20 км зарница {ливн. осадки} 4/3 1050 м
[Cb calv Ac As]
+20.1 +18.8 92 +23 +23 комфорт 1009.3 992.2 +19.7 +27.2 0.0
03 18.03 штиль 0 15 км 6/6 1200 м
[Cu med, cong]
+18.6 +18.0 96 +20 +20 1009.4 992.2
06 18.03 штиль 0 200 м туман ясно +16.2 +15.9 98 +16 +16 1008.5 991.4
09 18.03 З 2 6000 м в посл. час туман туман ясно +16.0 +15.3 96 +16 +16 1008.2 991.0
12 18.03 З 3 10 км дымка {туман} ясно +18.6 +15.9 84 +20 +23 1008.4 991.3 +14.0 +20.1 0.0
15 18.03 ЮЗ 3 15 км ясно +24.2 +14.2 54 +27 +38 жарко 1008.5 991.4
18 18.03 ЮЗ 4 15 км ясно +25.0 +14.0 50 +27 +34 жарко 1008.2 991.2
21 18.03 ЮВ 5 15 км ясно +22.6 +13.4 56 +26 +26 жарко 1008.6 991.4
00 19.03 ЮВ 2 15 км ясно +15.4 +11.3 77 +15 +15 1011.5 994.2 +15.4 +25.5
03 19.03 ЮВ 2 15 км ясно +13.4 +9.1 75 +13 +13 1013.8 996.6
06 19.03 ЮВ 2 15 км 4/0
[Ac As]
+13.4 +9.5 77 +13 +13 1013.9 996.6
09 19.03 ЮВ 3 15 км 9/0
[Ac As]
+12.6 +9.7 82 +11 +11 1015.3 998.0
12 19.03 ЮВ 1 8000 м слаб. дождь 10/5 300 м
[Frnb As op]
+12.0 +10.5 91 +12 +12 1018.4 1000.8 +12.0 +15.4 4
15 19.03 В 3 15 км {дождь} 9/6 540 м
[Sc Ac As]
+12.6 +10.7 88 +11 +14 1020.0 1002.2
18 19.03 Ю 4 15 км {дождь} 4/1 750 м
[Cu hum Ac As]
+18.8 +9.0 53 +19 +25 1019.2 1001.7 0.1
21 19.03 ЮВ 5 15 км 5/5 750 м
[Sc]
+18.0 +7.9 52 +18 +18 1019.0 1001.4
00 20.03 Ю 1 15 км 4/0
[Ac As]
+10.7 +7.8 82 +11 +11 1021.8 1004.0 +10.7 +19.6
03 20.03 Ю 1 15 км 4/0
[Ac trans Cs]
+9.7 +7.2 84 +10 +10 1023.6 1005.7
06 20.03 Ю 1 15 км ясно +7.6 +5.8 88 +7 +7 1024.1 1006.2
09 20.03 штиль 0 15 км ясно +6.3 +5.2 93 +5 +5 1023.8 1006.0
12 20.03 ЮЗ 1 9000 м дымка ясно +9.8 +6.6 80 +9 +13 1024.3 1006.4 +5.4 +10.9 0.1
15 20.03 ЮЗ 4 20 км 5/5 1260 м
[Cu hum]
+17.0 +6.8 51 +17 +22 1024.6 1006.8
18 20.03 Ю 8 20 км 6/6 1500 м
[Cu Sc]
+18.3 +6.3 45 +18 +19 1024.0 1006.2
21 20.03 Ю 2 20 км в посл. час морось 9/5 960 м
[St Ac und]
+14.6 +6.9 60 +14 +15 1024.2 1006.2
00 21.03 Ю 3 20 км {морось} 3/0
[Ac trans]
+11.2 +9.0 86 +10 +10 1024.9 1007.0 +9.8 +18.6 0.0
03 21.03 Ю 1 20 км ясно +7.3 +6.4 94 +7 +7 1025.5 1007.7
06 21.03 штиль 0 20 км ясно +5.4 +4.5 94 +4 +4 1024.7 1006.8
09 21.03 штиль 0 9000 м дымка ясно +3.6 +3.6 100 +2 +2 1024.3 1006.2
12 21.03 штиль 0 9000 м ясно +9.7 +7.8 88 +9 +13 1024.6 1006.6 +2.6 +11.2 0.0
15 21.03 Ю 2 15 км 4/4 750 м
[Cu hum]
+16.3 +7.6 56 +16 +24 1024.1 1006.2
18 21.03 С 1 15 км 4/4 750 м
[Cu hum]
+18.2 +7.7 50 +20 +28 1021.4 1003.6
21 21.03 С 3 15 км 6/1 750 м
[Cu hum Cs]
+16.9 +7.9 55 +17 +17 1020.3 1002.4
00 22.03 штиль 0 15 км 5/3 900 м
[Sc Cs]
+11.4 +8.6 83 +11 +11 1020.2 1002.2 +9.7 +18.6
03 22.03 С 2 15 км 8/0
[Ac As]
+11.0 +8.2 83 +10 +10 1020.0 1002.2
06 22.03 С 3 15 км 9/6 900 м
[Sc Ac As]
+11.2 +7.5 78 +9 +9 1019.6 1002.0
09 22.03 С 4 15 км 6/3 1000 м
[Sc Ac As Cs]
+10.2 +8.2 87 +8 +8 1019.3 1001.6
12 22.03 С 4 15 км 4/0
[Ac trans]
+12.9 +9.8 81 +11 +13 1020.8 1003.0 +9.5 +12.9
15 22.03 СЗ 8 15 км 3/3 1140 м
[Cu hum]
+19.1 +9.8 55 +19 +21 1019.6 1002.0
18 22.03 С 6 20 км 4/4 1380 м
[Cu med, cong Ac As]
+20.7 +9.9 50 +22 +24 комфорт 1017.4 999.8
21 22.03 С 4 20 км 3/3 1380 м
[Sc diur, vesp]
+20.4 +9.9 51 +22 +22 комфорт 1016.4 998.9
00 23.03 С 2 20 км ясно +16.0 +10.6 70 +16 +16 1016.8 999.2 +12.9 +21.3
03 23.03 С 4 15 км 1/0
[Cs]
+15.2 +9.5 69 +14 +14 1016.6 999.2
06 23.03 С 2 15 км 1/0
[Ac trans]
+12.8 +9.8 82 +12 +12 1016.5 999.0
09 23.03 С 3 15 км 4/0
[Cs]
+11.4 +9.8 90 +10 +10 1016.0 998.5
12 23.03 С 4 15 км 8/0
[Cs]
+14.2 +10.4 78 +13 +15 1015.6 998.1 +10.7 +16.0
15 23.03 С 6 15 км 6/0
[Cs]
+21.2 +12.5 58 +23 +28 комфорт 1014.0 996.6
18 23.03 СЗ 7 15 км 5/5 600 м
[Cu hum]
+23.6 +13.4 53 +26 +27 жарко 1011.3 994.1
21 23.03 СЗ 7 15 км 1/1 600 м
[Cu hum]
+23.6 +13.8 54 +26 +26 жарко 1009.0 991.8
00 24.03 СЗ 6 10 км гроза, ливневой дождь 9/4 1350 м
[Cb cap As op]
+19.5 +16.0 80 +21 +21 комфорт 1009.5 992.2 +14.2 +24.8 0.0
03 24.03 ЮЗ 4 10 км {гроза} 5/0
[Ac und]
+13.4 +12.3 93 +12 +12 1013.0 995.7
06 24.03 З 6 15 км {гроза} ясно +10.8 +9.2 90 +7 +7 1013.6 996.2 3
09 24.03 ЮЗ 9 15 км 4/4 900 м
[Sc Ac As]
+11.6 +10.8 95 +8 +8 1014.2 996.9
12 24.03 ЮЗ 8 7000 м дымка 3/3 900 м
[Sc]
+12.3 +10.2 87 +9 +10 1015.8 998.2 +9.9 +19.5 3
15 24.03 Ю 8 5000 м осадки на расстоянии туман 8/8 600 м
[Sc]
+15.8 +10.4 70 +14 +14 1017.1 999.4

 

Местоположение метеостанции Азул (Аргентина): широта -36.83 долгота -59.88 высота над уровнем моря 147 м.

В архиве по умолчанию представлена погода в Азуле за последнюю неделю. Архивные данные за месяц целиком и за предыдущие месяцы, начиная с января 2011 года, Вы можете получить, выбрав интересующий диапазон дат из раскрывающегося списка и нажав кнопку "Ввод!".


*Определитесь, кто Вы:
робот инопланетянин человек

Внимание! Время в таблицах - всемирное. Для получения местного времени необходимо прибавить поправку, которая равна -3 ч.

Смотрите также архив погоды в соседних городах и на ближайших метеорологических станциях:

Погода в Тандиле (Аргентина) (71 км)
Погода в Лас Флоресе (Аргентина) (110 км)
Погода в Боливаре (Аргентина) (127 км)
Погода в Трес Арройос (Аргентина) (170 км)
Погода в Долоресе (Аргентина) (201 км)
Погода в Мар-дель-Плате (Аргентина) (237 км)
Погода в Эсейсе (Аргентина) (256 км)
Погода в Хунине (Аргентина) (270 км)
Погода в Ла-Плате (Аргентина) (274 км)
Погода в Буэнос-Айресе (Аргентина) (280 км)

Пояснения к столбцам:

Ветер - указаны скорость ветра в м/с - средняя за 10 мин, порывы в срок и между сроками (в фигурных скобках) и направление, откуда дует ветер: С - северный, СВ - северо-восточный, В - восточный, ЮВ - юго-восточный, Ю - южный, ЮЗ - юго-западный, З - западный, СЗ - северо-западный.
Видимость - горизонтальная дальность видимости в метрах или километрах. При видимости от 1 до 10 км при отсутствии осадков обычно наблюдается дымка, при ухудшении видимости до 1 км и менее - туман. В сухую погоду видимость может ухудшаться дымом, пылью или мглою.
Явления - указаны атмосферные явления, наблюдавшиеся в срок или в последний час перед сроком; фигурными скобками обозначены явления, наблюдавшиеся между сроками (за 1-3 часа до срока); квадратными скобками обозначены град или гололедные отложения с указанием их диаметра в мм.
Облачность - указаны через наклонную черту общая и нижняя облачность в баллах и высота нижней границы облаков в метрах; квадратными скобками обозначены формы облаков: Ci - перистые, Cs - перисто-слоистые, Cc - перисто-кучевые, Ac - высококучевые, As - высокослоистые, Sc - слоисто-кучевые, Ns - слоисто-дождевые, Cu - кучевые, Cb - кучево-дождевые. Подробнее классификацию облаков см. в Атласе облаков (PDF).
T - Температура воздуха - температура, измеренная на высоте 2 м над землей.
Td - Температура точки росы - температура, при понижении до которой содержащийся в воздухе водяной пар достигнет насыщения.
f - Относительная влажность воздуха - влажноcть воздуха, измеренная на высоте 2 м над землей.
Te - Эффективная температура - температура, которую ощущает одетый по сезону человек в тени. Характеристика душности погоды. При расчете учитывается влияние влажности воздуха и скорости ветра на теплоощущения человека.
Tes - Эффективная температура на солнце - температура, которую ощущает человек, с поправкой на солнечный нагрев. Характеристика знойности погоды. Зависит от высоты солнца над горизонтом, облачности и скорости ветра. Ночью, в пасмурную погоду, а также при ветре 12 м/с и более поправка равна нулю.
P - Атмосферное давление - приведенное к уровню моря атмосферное давление.
Po - Атмосферное давление - измеренное на уровне метеостанции атмосферное давление.
Tmin - Минимальная температура - минимум температуры воздуха на высоте 2 м над землей.
Tmax - Максимальная температура - максимум температуры воздуха на высоте 2 м над землей.
R - Количество осадков - Количество выпавших осадков за период времени, мм. При наведении курсора мыши на число - период времени, за который выпало указанное количество осадков.
R24 - Количество осадков - Количество выпавших осадков за 24 часа, мм.
S - Снежный покров - Высота снежного покрова, см. При наведении курсора мыши на число - состояние снежного покрова и степень покрытия местности в баллах.